Date String (YYYY-MM-DD hh:mm:ss) UTC,Instrument flags,absolute air pressure of the measurement (hPa),sample flow rate (lpm),inlet stack bypass flow (lpm),air temperature of the measurement (°C),ambient temperature measured by the external sensor (°C),aerosol sample conditioner tube jacket temperature (°C),OPC LED temperature (°C),internal box temperature (°C),relative humidity of the measurement (%),span deviation,mass concentration of particles derived from Lorenz-Mie calculation of OPC scattering (μg/m³),mass concentration of particles derived from Lorenz-Mie calculation of OPC scattering (μg/m³),mass concentration of particles derived from Lorenz-Mie calculation of OPC scattering (μg/m³)
DateTimeUTC,F1_M11,P_M11,Q1_M11,Q2_M11,T1_M11,T2_M11,T3_M11,T4_M11,T5_M11,U1_M11,ZSPAN_M11,X2_M11,X0_M11,X1_M11
2023-12-21 12:00:00,SystemResetWarning,0830.7,5.00,000.00,023.7,022.7,000.0,032.1,025.0,13.7,0000.0,0003.41,0007.66,0002.82
2023-12-21 12:01:00,SystemResetWarning,0830.7,5.00,000.00,023.6,022.6,000.0,032.1,024.9,13.7,0000.0,0003.38,0007.67,0002.80
2023-12-21 12:02:00,SystemResetWarning,0830.7,5.00,000.00,023.6,022.6,000.0,032.0,024.9,13.8,0000.0,0003.37,0007.52,0002.77
2023-12-21 12:03:00,SystemResetWarning,0830.7,5.00,000.00,023.6,022.6,000.0,032.0,025.0,13.8,0000.0,0003.36,0007.33,0002.72
2023-12-21 12:04:00,SystemResetWarning,0830.7,5.00,000.00,023.6,022.6,000.0,032.0,025.0,13.9,0000.0,0003.31,0007.73,0002.65
2023-12-21 12:05:00,SystemResetWarning,0830.7,5.00,000.00,023.6,022.6,000.0,032.0,024.9,13.9,0000.0,0003.31,0007.83,0002.61
2023-12-21 12:06:00,SystemResetWarning,0830.8,5.00,000.00,023.6,022.6,000.0,032.0,024.9,13.9,0000.0,0003.28,0008.32,0002.54
2023-12-21 12:07:00,SystemResetWarning,0830.8,5.00,000.00,023.6,022.6,000.0,032.0,025.0,13.9,0000.0,0003.26,0008.40,0002.49
2023-12-21 12:08:00,SystemResetWarning,0830.8,5.00,000.00,023.6,022.6,000.0,032.0,025.0,13.9,0000.0,0003.23,0008.32,0002.46
2023-12-21 12:09:00,SystemResetWarning,0830.8,5.00,000.00,023.6,022.6,000.0,032.0,025.0,13.8,0000.0,0003.19,0008.20,0002.42
2023-12-21 12:10:00,SystemResetWarning,0830.8,5.00,000.00,023.6,022.6,000.0,032.0,025.0,13.8,0000.0,0003.16,0007.75,0002.41
2023-12-21 12:11:00,SystemResetWarning,0830.9,5.00,000.00,023.6,022.6,000.0,032.0,025.0,13.8,0000.0,0003.10,0007.54,0002.39
2023-12-21 12:12:00,SystemResetWarning,0830.9,4.99,000.00,023.6,022.6,000.0,032.0,024.9,13.8,0000.0,0003.09,0008.01,0002.38
2023-12-21 12:13:00,SystemResetWarning,0830.9,4.99,000.00,023.6,022.6,000.0,032.0,024.9,13.8,0000.0,0003.06,0008.64,0002.36
2023-12-21 12:14:00,SystemResetWarning,0830.9,5.00,000.00,023.5,022.6,000.0,031.9,024.9,13.8,0000.0,0002.97,0008.70,0002.36
2023-12-21 12:15:00,SystemResetWarning,0830.8,5.01,000.00,023.5,022.6,000.0,031.9,024.8,13.8,0000.0,0002.96,0008.27,0002.36
2023-12-21 12:16:00,SystemResetWarning,0830.9,5.01,000.00,023.5,022.6,000.0,031.9,024.8,13.8,0000.0,0002.96,0008.41,0002.36
2023-12-21 12:17:00,SystemResetWarning,0830.9,5.00,000.00,023.5,022.6,000.0,031.9,024.8,13.8,0000.0,0003.01,0008.10,0002.35
2023-12-21 12:18:00,SystemResetWarning,0830.9,5.00,000.00,023.5,022.6,000.0,031.9,024.8,13.8,0000.0,0003.00,0007.86,0002.34
2023-12-21 12:19:00,SystemResetWarning,0830.9,5.00,000.00,023.5,022.6,000.0,031.9,024.8,13.8,0000.0,0003.02,0007.97,0002.34
2023-12-21 12:20:00,SystemResetWarning,0830.9,5.00,000.00,023.5,022.6,000.0,031.9,024.7,13.9,0000.0,0003.00,0008.76,0002.33
2023-12-21 12:21:00,SystemResetWarning,0830.9,5.00,000.00,023.4,022.6,000.0,031.9,024.6,13.9,0000.0,0003.02,0008.93,0002.34
2023-12-21 12:22:00,SystemResetWarning,0830.9,5.00,000.00,023.4,022.6,000.0,031.9,024.6,13.9,0000.0,0003.01,0009.61,0002.34
2023-12-21 12:23:00,SystemResetWarning,0830.9,5.00,000.00,023.4,022.5,000.0,031.9,024.6,13.9,0000.0,0003.04,0009.66,0002.36
2023-12-21 12:24:00,SystemResetWarning,0830.9,5.00,000.00,023.4,022.5,000.0,031.8,024.6,13.9,0000.0,0003.06,0009.28,0002.37
2023-12-21 12:25:00,SystemResetWarning,0830.9,5.01,000.00,023.3,022.5,000.0,031.8,024.5,13.9,0000.0,0003.06,0009.01,0002.38
2023-12-21 12:26:00,SystemResetWarning,0830.9,5.00,000.00,023.3,022.5,000.0,031.8,024.5,13.9,0000.0,0003.11,0009.94,0002.39
2023-12-21 12:27:00,SystemResetWarning,0830.9,5.00,000.00,023.3,022.5,000.0,031.8,024.5,14.0,0000.0,0003.11,0009.64,0002.40
2023-12-21 12:28:00,SystemResetWarning,0830.9,5.00,000.00,023.3,022.5,000.0,031.8,024.5,14.0,0000.0,0003.09,0009.53,0002.40
2023-12-21 12:29:00,SystemResetWarning,0831.0,5.00,000.00,023.3,022.4,000.0,031.8,024.6,14.1,0000.0,0003.06,0009.44,0002.40
2023-12-21 12:30:00,SystemResetWarning,0831.0,5.00,000.00,023.3,022.4,000.0,031.7,024.6,14.1,0000.0,0003.02,0009.32,0002.38
2023-12-21 12:31:00,SystemResetWarning,0831.1,5.00,000.00,023.3,022.4,000.0,031.7,024.6,14.1,0000.0,0003.03,0008.69,0002.38
2023-12-21 12:32:00,SystemResetWarning,0831.1,5.00,000.00,023.3,022.4,000.0,031.7,024.7,14.1,0000.0,0003.03,0008.36,0002.35
2023-12-21 12:33:00,SystemResetWarning,0831.1,5.00,000.00,023.3,022.4,000.0,031.7,024.7,14.0,0000.0,0003.03,0007.82,0002.33
2023-12-21 12:34:00,SystemResetWarning,0831.1,5.00,000.00,023.3,022.5,000.0,031.7,024.6,14.0,0000.0,0003.00,0007.34,0002.31
2023-12-21 12:35:00,SystemResetWarning,0831.1,5.00,000.00,023.3,022.5,000.0,031.7,024.6,14.0,0000.0,0002.96,0007.62,0002.30
2023-12-21 12:36:00,SystemResetWarning,0831.1,5.00,000.00,023.3,022.5,000.0,031.7,024.6,14.0,0000.0,0002.93,0007.45,0002.28
2023-12-21 12:37:00,SystemResetWarning,0831.1,5.00,000.00,023.3,022.4,000.0,031.7,024.5,14.1,0000.0,0002.89,0006.08,0002.26
2023-12-21 12:38:00,SystemResetWarning,0831.1,5.00,000.00,023.2,022.4,000.0,031.7,024.5,14.2,0000.0,0002.89,0006.40,0002.25
2023-12-21 12:39:00,SystemResetWarning,0831.1,5.00,000.00,023.2,022.4,000.0,031.7,024.5,14.2,0000.0,0002.85,0006.78,0002.23
2023-12-21 12:40:00,SystemResetWarning,0831.1,5.00,000.00,023.2,022.4,000.0,031.7,024.5,14.2,0000.0,0002.86,0007.44,0002.22
2023-12-21 12:41:00,SystemResetWarning,0831.1,5.00,000.00,023.2,022.4,000.0,031.6,024.6,14.2,0000.0,0002.87,0007.99,0002.22
2023-12-21 12:42:00,SystemResetWarning,0831.1,5.00,000.00,023.2,022.4,000.0,031.6,024.6,14.1,0000.0,0002.84,0008.13,0002.21
2023-12-21 12:43:00,SystemResetWarning,0831.2,5.00,000.00,023.2,022.4,000.0,031.6,024.6,14.1,0000.0,0002.83,0008.50,0002.22
2023-12-21 12:44:00,SystemResetWarning,0831.2,5.00,000.00,023.3,022.4,000.0,031.6,024.6,14.1,0000.0,0002.86,0008.78,0002.24
2023-12-21 12:45:00,SystemResetWarning,0831.1,5.00,000.00,023.3,022.4,000.0,031.6,024.7,14.1,0000.0,0002.93,0008.79,0002.27
2023-12-21 12:46:00,SystemResetWarning,0831.1,5.00,000.00,023.3,022.4,000.0,031.6,024.6,14.1,0000.0,0002.94,0008.26,0002.27
2023-12-21 12:47:00,SystemResetWarning,0831.1,5.00,000.00,023.3,022.4,000.0,031.6,024.6,14.1,0000.0,0002.97,0008.58,0002.28
2023-12-21 12:48:00,SystemResetWarning,0831.1,5.00,000.00,023.2,022.4,000.0,031.6,024.5,14.1,0000.0,0002.97,0008.82,0002.29
2023-12-21 12:49:00,SystemResetWarning,0831.1,5.00,000.00,023.2,022.4,000.0,031.6,024.5,14.1,0000.0,0002.92,0009.03,0002.28
2023-12-21 12:50:00,SystemResetWarning,0831.1,5.00,000.00,023.2,022.4,000.0,031.6,024.5,14.2,0000.0,0002.92,0008.80,0002.29
2023-12-21 12:51:00,SystemResetWarning,0831.1,5.00,000.00,023.2,022.4,000.0,031.6,024.5,14.2,0000.0,0002.88,0008.42,0002.27
2023-12-21 12:52:00,SystemResetWarning,0831.2,5.00,000.00,023.2,022.4,000.0,031.6,024.5,14.2,0000.0,0002.82,0008.57,0002.25
2023-12-21 12:53:00,SystemResetWarning,0831.2,5.00,000.00,023.2,022.4,000.0,031.6,024.5,14.2,0000.0,0002.89,0009.11,0002.26
2023-12-21 12:54:00,SystemResetWarning,0831.3,5.00,000.00,023.2,022.4,000.0,031.6,024.5,14.2,0000.0,0002.93,0008.79,0002.27
2023-12-21 12:55:00,SystemResetWarning,0831.3,5.00,000.00,023.2,022.4,000.0,031.6,024.6,14.2,0000.0,0002.91,0008.39,0002.27
2023-12-21 12:56:00,SystemResetWarning,0831.2,5.00,000.00,023.2,022.4,000.0,031.6,024.6,14.2,0000.0,0002.86,0008.27,0002.26
2023-12-21 12:57:00,SystemResetWarning,0831.2,5.00,000.00,023.2,022.4,000.0,031.6,024.6,14.2,0000.0,0002.85,0008.36,0002.25
2023-12-21 12:58:00,SystemResetWarning,0831.2,5.00,000.00,023.2,022.4,000.0,031.6,024.6,14.2,0000.0,0002.88,0008.27,0002.23
2023-12-21 12:59:00,SystemResetWarning,0831.2,5.00,000.00,023.2,022.4,000.0,031.6,024.6,14.2,0000.0,0002.88,0008.01,0002.23
